• In Czech Republic
  • List of Countries
  • For 7 days
  • Water Temperature
  • Satellite Maps
  • Weather Map
  • Weather Widgets
  • user-avatar
    Login

    Hourly Weather Baku

    Today, 29 June, Thursday

    Time Temperature Precipitation Wind Pressure Humidity
    00:00 +29°C° 0 mm 4 mps 756 mmHg 38%
    01:00 +28°C° 0 mm 4 mps 756 mmHg 43%
    02:00 +28°C° 0 mm 5 mps 756 mmHg 48%
    03:00 +28°C° 0 mm 4 mps 755 mmHg 50%
    04:00 +28°C° 0.1 mm 4 mps 756 mmHg 49%
    05:00 +28°C° 0.1 mm 3 mps 756 mmHg 48%
    06:00 +28°C° 0.1 mm 3 mps 756 mmHg 48%
    07:00 +30°C° 0.2 mm 2 mps 756 mmHg 43%
    08:00 +31°C° 0.2 mm 2 mps 756 mmHg 38%
    09:00 +32°C° 0 mm 1 mps 756 mmHg 33%
    10:00 +34°C° 0 mm 2 mps 756 mmHg 30%
    11:00 +35°C° 0 mm 2 mps 756 mmHg 27%
    12:00 +36°C° 0 mm 3 mps 756 mmHg 24%
    13:00 +36°C° 0 mm 4 mps 756 mmHg 23%
    14:00 +36°C° 0 mm 4 mps 755 mmHg 23%
    15:00 +36°C° 0 mm 5 mps 755 mmHg 22%
    16:00 +35°C° 0 mm 5 mps 755 mmHg 23%
    17:00 +34°C° 0 mm 5 mps 755 mmHg 25%
    18:00 +33°C° 0 mm 5 mps 755 mmHg 26%
    19:00 +32°C° 0 mm 6 mps 755 mmHg 29%
    20:00 +32°C° 0 mm 6 mps 755 mmHg 32%
    21:00 +30°C° 0 mm 6 mps 755 mmHg 35%
    22:00 +29°C° 0 mm 6 mps 755 mmHg 36%
    23:00 +29°C° 0 mm 6 mps 755 mmHg 36%

    Tomorrow, 30 June, Friday

    Time Temperature Precipitation Wind Pressure Humidity
    00:00 +29°C° 0 mm 7 mps 755 mmHg 37%
    01:00 +28°C° 0 mm 7 mps 755 mmHg 38%
    02:00 +28°C° 0 mm 8 mps 755 mmHg 38%
    03:00 +28°C° 0 mm 8 mps 755 mmHg 38%
    04:00 +28°C° 0 mm 8 mps 755 mmHg 38%
    05:00 +29°C° 0 mm 9 mps 755 mmHg 38%
    06:00 +29°C° 0 mm 9 mps 755 mmHg 37%
    07:00 +31°C° 0 mm 9 mps 755 mmHg 36%
    08:00 +32°C° 0 mm 10 mps 755 mmHg 35%
    09:00 +33°C° 0 mm 10 mps 756 mmHg 34%
    10:00 +33°C° 0 mm 11 mps 755 mmHg 34%
    11:00 +34°C° 0 mm 11 mps 755 mmHg 34%
    12:00 +34°C° 0 mm 11 mps 755 mmHg 33%
    13:00 +34°C° 0 mm 11 mps 755 mmHg 34%
    14:00 +33°C° 0 mm 10 mps 755 mmHg 35%
    15:00 +33°C° 0 mm 10 mps 755 mmHg 36%
    16:00 +33°C° 0 mm 10 mps 755 mmHg 37%
    17:00 +32°C° 0 mm 10 mps 755 mmHg 38%
    18:00 +32°C° 0 mm 9 mps 755 mmHg 38%
    19:00 +32°C° 0 mm 9 mps 755 mmHg 39%
    20:00 +31°C° 0 mm 9 mps 756 mmHg 40%
    21:00 +31°C° 0 mm 9 mps 756 mmHg 40%
    22:00 +29°C° 0 mm 9 mps 756 mmHg 43%
    23:00 +29°C° 0 mm 10 mps 756 mmHg 45%

    Day after tomorrow, 1 July, Saturday

    Time Temperature Precipitation Wind Pressure Humidity
    00:00 +29°C° 0 mm 10 mps 756 mmHg 48%
    01:00 +29°C° 0 mm 10 mps 756 mmHg 49%
    02:00 +28°C° 0 mm 10 mps 756 mmHg 50%
    03:00 +28°C° 0 mm 10 mps 756 mmHg 51%
    04:00 +29°C° 0 mm 10 mps 756 mmHg 49%
    05:00 +29°C° 0 mm 10 mps 757 mmHg 48%
    06:00 +29°C° 0 mm 11 mps 757 mmHg 46%
    07:00 +31°C° 0 mm 11 mps 757 mmHg 45%
    08:00 +32°C° 0 mm 11 mps 757 mmHg 43%
    09:00 +33°C° 0 mm 12 mps 758 mmHg 42%
    10:00 +33°C° 0 mm 12 mps 758 mmHg 41%
    11:00 +34°C° 0 mm 11 mps 758 mmHg 40%
    12:00 +34°C° 0 mm 11 mps 758 mmHg 39%
    13:00 +34°C° 0 mm 10 mps 757 mmHg 40%
    14:00 +34°C° 0 mm 10 mps 757 mmHg 40%
    15:00 +33°C° 0 mm 9 mps 757 mmHg 41%
    16:00 +33°C° 0 mm 9 mps 757 mmHg 43%
    17:00 +32°C° 0 mm 8 mps 757 mmHg 44%
    18:00 +32°C° 0 mm 8 mps 757 mmHg 45%
    19:00 +30°C° 0 mm 7 mps 757 mmHg 48%
    20:00 +30°C° 0 mm 7 mps 757 mmHg 50%
    21:00 +29°C° 0 mm 6 mps 758 mmHg 53%
    22:00 +29°C° 0 mm 6 mps 758 mmHg 53%
    23:00 +28°C° 0 mm 6 mps 758 mmHg 53%

    2 July, Sunday

    Time Temperature Precipitation Wind Pressure Humidity
    00:00 +28°C° 0 mm 5 mps 758 mmHg 53%
    01:00 +28°C° 0 mm 5 mps 757 mmHg 53%
    02:00 +28°C° 0 mm 5 mps 757 mmHg 53%
    03:00 +28°C° 0 mm 5 mps 757 mmHg 52%
    04:00 +28°C° 0 mm 5 mps 757 mmHg 50%
    05:00 +29°C° 0 mm 5 mps 757 mmHg 47%
    06:00 +29°C° 0 mm 5 mps 757 mmHg 45%
    07:00 +32°C° 0 mm 4 mps 757 mmHg 41%
    08:00 +33°C° 0 mm 4 mps 758 mmHg 37%
    09:00 +34°C° 0 mm 4 mps 758 mmHg 32%
    10:00 +35°C° 0 mm 3 mps 757 mmHg 31%
    11:00 +36°C° 0 mm 3 mps 757 mmHg 29%
    12:00 +37°C° 0 mm 3 mps 757 mmHg 28%
    13:00 +37°C° 0 mm 3 mps 756 mmHg 27%
    14:00 +37°C° 0 mm 3 mps 756 mmHg 27%
    15:00 +38°C° 0 mm 3 mps 756 mmHg 27%
    16:00 +37°C° 0 mm 3 mps 755 mmHg 28%
    17:00 +36°C° 0 mm 3 mps 755 mmHg 29%
    18:00 +36°C° 0 mm 3 mps 755 mmHg 31%
    19:00 +35°C° 0 mm 3 mps 755 mmHg 34%
    20:00 +34°C° 0 mm 3 mps 755 mmHg 37%
    21:00 +31°C° 0 mm 3 mps 755 mmHg 41%
    22:00 +31°C° 0 mm 3 mps 755 mmHg 40%
    23:00 +31°C° 0 mm 2 mps 755 mmHg 40%

    3 July, Monday

    Time Temperature Precipitation Wind Pressure Humidity
    00:00 +31°C° 0 mm 2 mps 755 mmHg 40%
    01:00 +30°C° 0 mm 2 mps 755 mmHg 40%
    02:00 +30°C° 0 mm 2 mps 754 mmHg 40%
    03:00 +30°C° 0 mm 2 mps 754 mmHg 40%
    04:00 +30°C° 0 mm 3 mps 754 mmHg 38%
    05:00 +31°C° 0 mm 3 mps 754 mmHg 36%
    06:00 +33°C° 0 mm 3 mps 754 mmHg 34%
    07:00 +34°C° 0 mm 3 mps 754 mmHg 32%
    08:00 +36°C° 0 mm 4 mps 754 mmHg 29%
    09:00 +37°C° 0 mm 5 mps 754 mmHg 26%
    10:00 +39°C° 0 mm 5 mps 754 mmHg 25%
    11:00 +40°C° 0 mm 5 mps 754 mmHg 24%
    12:00 +41°C° 0 mm 5 mps 754 mmHg 23%
    13:00 +41°C° 0 mm 5 mps 753 mmHg 23%
    14:00 +41°C° 0 mm 5 mps 753 mmHg 23%
    15:00 +41°C° 0 mm 5 mps 753 mmHg 23%
    16:00 +40°C° 0 mm 5 mps 752 mmHg 26%
    17:00 +37°C° 0 mm 5 mps 752 mmHg 29%
    18:00 +36°C° 0 mm 5 mps 752 mmHg 32%
    19:00 +35°C° 0 mm 4 mps 752 mmHg 36%
    20:00 +33°C° 0 mm 4 mps 752 mmHg 40%
    21:00 +31°C° 0 mm 3 mps 753 mmHg 43%
    22:00 +31°C° 0 mm 3 mps 752 mmHg 44%
    23:00 +31°C° 0 mm 3 mps 752 mmHg 45%

    4 July, Tuesday

    Time Temperature Precipitation Wind Pressure Humidity
    00:00 +30°C° 0 mm 2 mps 752 mmHg 45%
    01:00 +30°C° 0 mm 3 mps 752 mmHg 45%
    02:00 +30°C° 0 mm 3 mps 752 mmHg 45%
    03:00 +30°C° 0 mm 3 mps 752 mmHg 45%
    04:00 +30°C° 0 mm 3 mps 752 mmHg 45%
    05:00 +30°C° 0 mm 3 mps 752 mmHg 45%
    06:00 +31°C° 0 mm 3 mps 752 mmHg 45%
    07:00 +33°C° 0 mm 3 mps 752 mmHg 40%
    08:00 +35°C° 0 mm 4 mps 752 mmHg 36%
    09:00 +36°C° 0 mm 4 mps 752 mmHg 31%
    10:00 +37°C° 0 mm 4 mps 752 mmHg 29%
    11:00 +40°C° 0 mm 4 mps 752 mmHg 26%
    12:00 +41°C° 0 mm 5 mps 751 mmHg 24%
    13:00 +41°C° 0 mm 5 mps 751 mmHg 23%
    14:00 +41°C° 0 mm 5 mps 751 mmHg 23%
    15:00 +41°C° 0 mm 5 mps 750 mmHg 23%
    16:00 +40°C° 0 mm 5 mps 750 mmHg 24%
    17:00 +38°C° 0 mm 4 mps 750 mmHg 24%
    18:00 +37°C° 0 mm 4 mps 750 mmHg 25%
    19:00 +36°C° 0 mm 3 mps 750 mmHg 27%
    20:00 +35°C° 0 mm 3 mps 751 mmHg 30%
    21:00 +34°C° 0 mm 3 mps 751 mmHg 32%
    22:00 +32°C° 0 mm 2 mps 751 mmHg 33%
    23:00 +32°C° 0 mm 2 mps 750 mmHg 34%
    Show more